Norman, OK

4:31 AM CST on February 12, 2016 (GMT -0600)
Univ. Of Oklahoma Westheimer

Weather History for KOUN - September, 2012

Change the Weather History Date:

Saturday, September 8, 2012

  Actual Average Record
Temperature  
Mean Temperature 68 °F -  
Max Temperature 80 °F 88 °F 98 °F (1954)
Min Temperature 57 °F 66 °F 35 °F (2003)
Cooling Degree Days 4    
Growing Degree Days 18 (Base 50)    
Moisture  
Dew Point 51 °F    
Average Humidity 56    
Maximum Humidity 94    
Minimum Humidity 30    
Precipitation  
Precipitation 0.00 in - - ()
Sea Level Pressure  
Sea Level Pressure 30.16 in    
Wind  
Wind Speed 10 mph (North)    
Max Wind Speed 21 mph    
Max Gust Speed 29 mph    
Visibility 10 miles    
Events      
Averages and records for this station are not official NWS values.
T = Trace of Precipitation, MM = Missing Value Source: NWS Daily Summary

Daily Weather History Graph

Daily Weather History Graph

Search for Another Location

Airport or City:

Trip Planner

Search our weather history database for the weather conditions in past years. The results will help you decide how hot, cold, wet, or windy it might be!

Date:

Astronomy

Sep. 08, 2012 Rise Set
Actual Time 7:07 AM CDT 7:46 PM CDT
Civil Twilight 6:42 AM CDT 8:11 PM CDT
Nautical Twilight 6:12 AM CDT 8:41 PM CDT
Astronomical Twilight 5:41 AM CDT 9:12 PM CDT
Moon 12:00 AM CDT (9/8) 2:34 PM CDT (9/8)
Length of Visible Light 13h 29m
Length of Day
12h 38m
Waning Gibbous, 48% of the Moon is Illuminated
Sep 8
Waning Gibbous
Sep 15
New
Sep 22
First Quarter
Sep 29
Full
Oct 8
Last Quarter

Hourly Weather History & Observations

Time (CDT) Temp. Dew Point Humidity Pressure Visibility Wind Dir Wind Speed Gust Speed Precip Events Conditions
12:15 AM 62.6 °F 60.8 °F 94% 30.13 in 10.0 mi North 12.7 mph 17.3 mph N/A   Clear
12:35 AM 62.6 °F 59.0 °F 88% 30.13 in 10.0 mi North 11.5 mph 17.3 mph N/A   Clear
12:55 AM 62.6 °F 57.2 °F 82% 30.13 in 10.0 mi North 11.5 mph 17.3 mph N/A   Clear
1:15 AM 60.8 °F 55.4 °F 82% 30.14 in 10.0 mi North 11.5 mph - N/A   Clear
1:35 AM 60.8 °F 55.4 °F 82% 30.14 in 10.0 mi North 8.1 mph - N/A   Clear
1:55 AM 60.8 °F 53.6 °F 77% 30.14 in 10.0 mi North 10.4 mph - N/A   Clear
2:35 AM 60.8 °F 53.6 °F 77% 30.15 in 10.0 mi North 11.5 mph 18.4 mph N/A   Clear
2:55 AM 60.8 °F 53.6 °F 77% 30.14 in 10.0 mi North 9.2 mph - N/A   Clear
3:15 AM 62.6 °F 53.6 °F 72% 30.15 in 10.0 mi North 12.7 mph - N/A   Clear
3:35 AM 60.8 °F 53.6 °F 77% 30.15 in 10.0 mi North 12.7 mph 17.3 mph N/A   Clear
3:55 AM 60.8 °F 53.6 °F 77% 30.15 in 10.0 mi North 11.5 mph - N/A   Clear
4:15 AM 60.8 °F 53.6 °F 77% 30.14 in 10.0 mi North 13.8 mph 18.4 mph N/A   Clear
4:35 AM 60.8 °F 53.6 °F 77% 30.15 in 10.0 mi North 10.4 mph - N/A   Clear
4:55 AM 60.8 °F 53.6 °F 77% 30.15 in 10.0 mi North 11.5 mph - N/A   Clear
5:15 AM 59.0 °F 53.6 °F 82% 30.15 in 10.0 mi North 10.4 mph - N/A   Clear
5:35 AM 59.0 °F 53.6 °F 82% 30.16 in 10.0 mi North 9.2 mph - N/A   Clear
5:55 AM 59.0 °F 53.6 °F 82% 30.16 in 10.0 mi North 10.4 mph - N/A   Clear
6:15 AM 59.0 °F 53.6 °F 82% 30.17 in 10.0 mi North 11.5 mph - N/A   Clear
6:35 AM 59.0 °F 53.6 °F 82% 30.18 in 10.0 mi North 9.2 mph - N/A   Clear
6:55 AM 57.2 °F 53.6 °F 88% 30.19 in 10.0 mi North 9.2 mph - N/A   Clear
7:15 AM 57.2 °F 53.6 °F 88% 30.19 in 10.0 mi North 8.1 mph - N/A   Clear
7:35 AM 59.0 °F 53.6 °F 82% 30.20 in 10.0 mi North 8.1 mph - N/A   Clear
7:55 AM 59.0 °F 53.6 °F 82% 30.20 in 10.0 mi NNW 8.1 mph - N/A   Clear
8:15 AM 60.8 °F 53.6 °F 77% 30.21 in 10.0 mi NNW 4.6 mph - N/A   Clear
8:35 AM 62.6 °F 53.6 °F 72% 30.21 in 10.0 mi North 8.1 mph - N/A   Clear
8:55 AM 64.4 °F 53.6 °F 68% 30.21 in 10.0 mi North 12.7 mph - N/A   Clear
9:15 AM 66.2 °F 53.6 °F 64% 30.22 in 10.0 mi North 11.5 mph - N/A   Clear
9:35 AM 68.0 °F 53.6 °F 60% 30.21 in 10.0 mi North 11.5 mph - N/A   Clear
9:55 AM 68.0 °F 53.6 °F 60% 30.22 in 10.0 mi North 8.1 mph - N/A   Clear
10:15 AM 69.8 °F 53.6 °F 56% 30.22 in 10.0 mi North 9.2 mph - N/A   Clear
10:35 AM 69.8 °F 53.6 °F 56% 30.22 in 10.0 mi North 6.9 mph - N/A   Clear
10:55 AM 71.6 °F 51.8 °F 50% 30.22 in 10.0 mi NNW 6.9 mph - N/A   Clear
11:15 AM 71.6 °F 51.8 °F 50% 30.22 in 10.0 mi North 11.5 mph 17.3 mph N/A   Clear
11:35 AM 73.4 °F 51.8 °F 47% 30.22 in 10.0 mi North 16.1 mph 20.7 mph N/A   Clear
11:55 AM 75.2 °F 51.8 °F 44% 30.22 in 10.0 mi North 12.7 mph 21.9 mph N/A   Clear
12:15 PM 75.2 °F 51.8 °F 44% 30.21 in 10.0 mi NNE 15.0 mph 19.6 mph N/A   Clear
12:35 PM 77.0 °F 51.8 °F 41% 30.21 in 10.0 mi North 13.8 mph 19.6 mph N/A   Clear
12:55 PM 77.0 °F 50.0 °F 39% 30.20 in 10.0 mi North 13.8 mph 20.7 mph N/A   Clear
1:15 PM 77.0 °F 50.0 °F 39% 30.19 in 10.0 mi NNW 12.7 mph 24.2 mph N/A   Clear
1:35 PM 77.0 °F 50.0 °F 39% 30.19 in 10.0 mi NNE 15.0 mph 21.9 mph N/A   Clear
1:55 PM 78.8 °F 50.0 °F 36% 30.18 in 10.0 mi North 20.7 mph 27.6 mph N/A   Clear
2:15 PM 78.8 °F 51.8 °F 39% 30.17 in 10.0 mi North 17.3 mph 21.9 mph N/A   Clear
2:35 PM 78.8 °F 50.0 °F 36% 30.16 in 10.0 mi North 18.4 mph - N/A   Clear
3:15 PM 78.8 °F 50.0 °F 36% 30.15 in 10.0 mi North 15.0 mph 28.8 mph N/A   Clear
3:35 PM 78.8 °F 50.0 °F 36% 30.14 in 10.0 mi North 15.0 mph 20.7 mph N/A   Clear
3:55 PM 80.6 °F 50.0 °F 34% 30.13 in 10.0 mi North 17.3 mph - N/A   Clear
4:15 PM 80.6 °F 50.0 °F 34% 30.12 in 10.0 mi NNW 12.7 mph 16.1 mph N/A   Clear
4:35 PM 80.6 °F 50.0 °F 34% 30.12 in 10.0 mi NNW 16.1 mph 20.7 mph N/A   Clear
4:55 PM 80.6 °F 48.2 °F 32% 30.11 in 10.0 mi North 11.5 mph 18.4 mph N/A   Clear
5:15 PM 80.6 °F 48.2 °F 32% 30.11 in 10.0 mi NNW 6.9 mph 19.6 mph N/A   Clear
5:35 PM 80.6 °F 46.4 °F 30% 30.11 in 10.0 mi North 12.7 mph 17.3 mph N/A   Clear
5:55 PM 80.6 °F 48.2 °F 32% 30.11 in 10.0 mi North 11.5 mph 17.3 mph N/A   Clear
6:15 PM 78.8 °F 46.4 °F 32% 30.11 in 10.0 mi North 10.4 mph - N/A   Clear
6:35 PM 78.8 °F 46.4 °F 32% 30.11 in 10.0 mi North 11.5 mph 16.1 mph N/A   Clear
6:55 PM 78.8 °F 46.4 °F 32% 30.11 in 10.0 mi North 8.1 mph - N/A   Clear
7:15 PM 77.0 °F 46.4 °F 34% 30.11 in 10.0 mi North 5.8 mph - N/A   Clear
7:35 PM 73.4 °F 46.4 °F 38% 30.11 in 10.0 mi North 4.6 mph - N/A   Clear
7:55 PM 71.6 °F 44.6 °F 38% 30.11 in 10.0 mi North 3.5 mph - N/A   Clear
8:15 PM 71.6 °F 44.6 °F 38% 30.11 in 10.0 mi North 3.5 mph - N/A   Clear
8:35 PM 69.8 °F 44.6 °F 40% 30.11 in 10.0 mi Calm Calm - N/A   Clear
8:55 PM 69.8 °F 44.6 °F 40% 30.12 in 10.0 mi Calm Calm - N/A   Clear
9:15 PM 68.0 °F 44.6 °F 43% 30.12 in 10.0 mi Calm Calm - N/A   Clear
9:35 PM 69.8 °F 44.6 °F 40% 30.12 in 10.0 mi Calm Calm - N/A   Clear
9:55 PM 69.8 °F 44.6 °F 40% 30.13 in 10.0 mi Calm Calm - N/A   Clear
10:15 PM 66.2 °F 46.4 °F 49% 30.13 in 10.0 mi Calm Calm - N/A   Clear
10:35 PM 64.4 °F 46.4 °F 52% 30.13 in 10.0 mi Calm Calm - N/A   Clear
10:55 PM 64.4 °F 46.4 °F 52% 30.14 in 10.0 mi Calm Calm - N/A   Clear
11:15 PM 62.6 °F 46.4 °F 55% 30.14 in 10.0 mi Calm Calm - N/A   Clear
11:55 PM 62.6 °F 46.4 °F 55% 30.14 in 10.0 mi Calm Calm - N/A   Clear